![]() |
EMODnet Physics ERDDAP
Easier access to scientific data |
log in|
Brought to you by EMODnet Physics |
| Dataset Title: | NDBC - Collection of dew point temperature (DEWT) TimeSeries - IN SITU MultiPointTimeSeriesObservation
|
| Institution: | NDBC (Dataset ID: TS_DEWT_NDBC) |
| Information: | Summary
| License
| FGDC
| ISO 19115
| Metadata
| Background
| Subset
| Data Access Form
| Make a graph
|
| Name | Last modified | Size | Description | |
|---|---|---|---|---|
| Parent Directory | - | - | ||
| 44073_TS_DEWT_012020.nc | 26-Oct-2024 18:17 | 449580 | ||
| 44073_TS_DEWT_012021.nc | 26-Oct-2024 18:17 | 1114676 | ||
| 44073_TS_DEWT_012022.nc | 26-Oct-2024 18:17 | 1113016 | ||
| 44073_TS_DEWT_012024.nc | 26-Oct-2024 18:17 | 1113672 | ||
| 44073_TS_DEWT_022020.nc | 26-Oct-2024 18:17 | 1115325 | ||
| 44073_TS_DEWT_022021.nc | 26-Oct-2024 18:17 | 652500 | ||
| 44073_TS_DEWT_022022.nc | 26-Oct-2024 18:17 | 1112608 | ||
| 44073_TS_DEWT_022024.nc | 16-Sep-2024 16:51 | 1116401 | ||
| 44073_TS_DEWT_032020.nc | 26-Oct-2024 18:17 | 429612 | ||
| 44073_TS_DEWT_032021.nc | 26-Oct-2024 18:18 | 429610 | ||
| 44073_TS_DEWT_032022.nc | 26-Oct-2024 18:18 | 428492 | ||
| 44073_TS_DEWT_042020.nc | 26-Oct-2024 18:18 | 429611 | ||
| 44073_TS_DEWT_042021.nc | 26-Oct-2024 18:18 | 429612 | ||
| 44073_TS_DEWT_042022.nc | 26-Oct-2024 18:18 | 451273 | ||
| 44073_TS_DEWT_052020.nc | 26-Oct-2024 18:18 | 443642 | ||
| 44073_TS_DEWT_052021.nc | 26-Oct-2024 18:18 | 449617 | ||
| 44073_TS_DEWT_052022.nc | 26-Oct-2024 18:18 | 450191 | ||
| 44073_TS_DEWT_062020.nc | 26-Oct-2024 18:18 | 450787 | ||
| 44073_TS_DEWT_062021.nc | 26-Oct-2024 18:18 | 450729 | ||
| 44073_TS_DEWT_072019.nc | 26-Oct-2024 18:18 | 449841 | ||
| 44073_TS_DEWT_072020.nc | 26-Oct-2024 18:18 | 429840 | ||
| 44073_TS_DEWT_072021.nc | 26-Oct-2024 18:18 | 449815 | ||
| 44073_TS_DEWT_082019.nc | 26-Oct-2024 18:18 | 451386 | ||
| 44073_TS_DEWT_082020.nc | 26-Oct-2024 18:18 | 429589 | ||
| 44073_TS_DEWT_082021.nc | 26-Oct-2024 18:18 | 429836 | ||
| 44073_TS_DEWT_092020.nc | 26-Oct-2024 18:18 | 438171 | ||
| 44073_TS_DEWT_092021.nc | 26-Oct-2024 18:19 | 449699 | ||
| 44073_TS_DEWT_092023.nc | 26-Oct-2024 18:19 | 450088 | ||
| 44073_TS_DEWT_102019.nc | 26-Oct-2024 18:19 | 450555 | ||
| 44073_TS_DEWT_102020.nc | 26-Oct-2024 18:19 | 449964 | ||
| 44073_TS_DEWT_102021.nc | 26-Oct-2024 18:19 | 429831 | ||
| 44073_TS_DEWT_112020.nc | 26-Oct-2024 18:19 | 429841 | ||
| 44073_TS_DEWT_112021.nc | 26-Oct-2024 18:19 | 451193 | ||
| 44073_TS_DEWT_112023.nc | 26-Oct-2024 18:19 | 1265890 | ||
| 44073_TS_DEWT_122019.nc | 26-Oct-2024 18:19 | 1265476 | ||
| 44073_TS_DEWT_122020.nc | 26-Oct-2024 18:19 | 1262831 | ||
| 44073_TS_DEWT_122021.nc | 26-Oct-2024 18:19 | 1268715 | ||
| 44073_TS_DEWT_122023.nc | 26-Oct-2024 18:19 | 1004698 | ||